LHA421 EDDF-LTFM

Flight info

Callsign LHA421
Flight time 2h 29m
Altitude 37000
Route CINDY8S/18 CINDY Z74 LAMPU DCT NOMBO Y161 RIDAR DCT ALUTU DCT ESEGA DCT VELOM DCT GOTAR DCT BABIT DCT ESIRI DCT ETIDA T390 RILEX
Aircraft B77L/H-SDE1E2FGIJ1RWYZ/S

Departure

Time 2026-05-04 15:52
Airport Frankfurt Main Airport (EDDF)

Arrival

Time 2026-05-04 18:21
Airport İstanbul Airport (LTFM)
Time Latitude Longitude Altitude Speed Heading
2026-05-04 14:33 50.05073 8.58862 358 ft 0 kts 340°
2026-05-04 15:20 50.05057 8.58872 360 ft 4 kts 324°
2026-05-04 15:20 50.05040 8.58901 358 ft 4 kts 293°
2026-05-04 15:20 50.05033 8.58941 360 ft 4 kts 273°
2026-05-04 15:20 50.05034 8.58983 360 ft 4 kts 261°
2026-05-04 15:21 50.05039 8.59024 360 ft 4 kts 253°
2026-05-04 15:21 50.05046 8.59056 360 ft 0 kts 250°
2026-05-04 15:41 50.05028 8.58990 358 ft 10 kts 247°
2026-05-04 15:41 50.04998 8.58875 357 ft 12 kts 249°
2026-05-04 15:41 50.04968 8.58748 355 ft 12 kts 250°
2026-05-04 15:41 50.04938 8.58621 357 ft 13 kts 250°
2026-05-04 15:42 50.04903 8.58478 352 ft 15 kts 249°
2026-05-04 15:42 50.04865 8.58321 360 ft 18 kts 249°
2026-05-04 15:42 50.04820 8.58139 355 ft 18 kts 249°
2026-05-04 15:42 50.04772 8.57987 358 ft 16 kts 228°
2026-05-04 15:43 50.04700 8.57863 360 ft 16 kts 242°
2026-05-04 15:43 50.04659 8.57700 357 ft 16 kts 251°
2026-05-04 15:43 50.04621 8.57532 355 ft 16 kts 251°
2026-05-04 15:43 50.04581 8.57366 358 ft 16 kts 249°
2026-05-04 15:44 50.04525 8.57139 357 ft 29 kts 249°
2026-05-04 15:44 50.04453 8.56840 360 ft 29 kts 250°
2026-05-04 15:44 50.04382 8.56541 357 ft 29 kts 250°
2026-05-04 15:44 50.04311 8.56243 358 ft 29 kts 249°
2026-05-04 15:45 50.04239 8.55944 358 ft 29 kts 250°
2026-05-04 15:45 50.04169 8.55645 356 ft 29 kts 250°
2026-05-04 15:45 50.04098 8.55346 355 ft 29 kts 250°
2026-05-04 15:45 50.04027 8.55048 356 ft 29 kts 250°
2026-05-04 15:46 50.03956 8.54749 354 ft 29 kts 250°
2026-05-04 15:46 50.03885 8.54451 360 ft 29 kts 249°
2026-05-04 15:46 50.03787 8.54173 357 ft 29 kts 247°
2026-05-04 15:46 50.03715 8.53878 357 ft 29 kts 249°
2026-05-04 15:47 50.03646 8.53587 358 ft 27 kts 249°
2026-05-04 15:47 50.03596 8.53385 355 ft 19 kts 249°
2026-05-04 15:47 50.03553 8.53210 352 ft 15 kts 249°
2026-05-04 15:47 50.03518 8.53063 360 ft 14 kts 249°
2026-05-04 15:48 50.03485 8.52926 353 ft 12 kts 249°
2026-05-04 15:48 50.03458 8.52826 359 ft 7 kts 247°
2026-05-04 15:48 50.03451 8.52801 354 ft 0 kts 247°
2026-05-04 15:50 50.03446 8.52785 358 ft 11 kts 247°
2026-05-04 15:50 50.03412 8.52667 353 ft 11 kts 237°
2026-05-04 15:51 50.03342 8.52599 357 ft 14 kts 191°
2026-05-04 15:51 50.03211 8.52595 352 ft 28 kts 181°
2026-05-04 15:51 50.02735 8.52598 350 ft 125 kts 178°
2026-05-04 15:51 50.01533 8.52609 677 ft 201 kts 180°
2026-05-04 15:52 50.00082 8.52675 1841 ft 214 kts 180°
2026-05-04 15:52 49.98545 8.52690 2935 ft 225 kts 183°
2026-05-04 15:52 49.96987 8.53031 3652 ft 233 kts 155°
2026-05-04 15:52 49.95791 8.54725 3963 ft 236 kts 121°
2026-05-04 15:53 49.95019 8.56974 4066 ft 237 kts 119°
2026-05-04 15:53 49.94260 8.59218 4886 ft 238 kts 114°
2026-05-04 15:53 49.93961 8.61784 5656 ft 253 kts 95°
2026-05-04 15:53 49.93881 8.64649 6291 ft 273 kts 96°
2026-05-04 15:54 49.93740 8.67624 7227 ft 277 kts 104°
2026-05-04 15:54 49.92936 8.70289 8100 ft 274 kts 136°
2026-05-04 15:54 49.91466 8.72103 9115 ft 271 kts 149°
2026-05-04 15:54 49.89900 8.73805 10099 ft 277 kts 148°
2026-05-04 15:55 49.88365 8.75706 10736 ft 295 kts 136°
2026-05-04 15:55 49.87213 8.78544 10957 ft 328 kts 120°
2026-05-04 15:55 49.86114 8.81831 11325 ft 355 kts 121°
2026-05-04 15:55 49.84904 8.85247 12147 ft 368 kts 122°
2026-05-04 15:56 49.83638 8.88751 13133 ft 376 kts 122°
2026-05-04 15:56 49.82347 8.92307 14134 ft 382 kts 122°
2026-05-04 15:56 49.81035 8.95914 15055 ft 387 kts 122°
2026-05-04 15:56 49.79703 8.99575 15918 ft 393 kts 122°
2026-05-04 15:57 49.78363 9.03254 16801 ft 399 kts 122°
2026-05-04 15:57 49.76977 9.07049 17678 ft 404 kts 122°
2026-05-04 15:57 49.75744 9.10986 18461 ft 412 kts 111°
2026-05-04 15:57 49.75062 9.15354 19121 ft 421 kts 104°
2026-05-04 15:58 49.74223 9.19668 19737 ft 421 kts 120°
2026-05-04 15:58 49.72514 9.23283 20466 ft 417 kts 137°
2026-05-04 15:58 49.70475 9.26484 21355 ft 419 kts 138°
2026-05-04 15:58 49.68460 9.29770 22163 ft 424 kts 136°
2026-05-04 15:59 49.66478 9.33176 22904 ft 429 kts 135°
2026-05-04 15:59 49.64492 9.36658 23623 ft 435 kts 135°
2026-05-04 15:59 49.62385 9.40009 24220 ft 436 kts 142°
2026-05-04 15:59 49.60034 9.42964 24875 ft 436 kts 148°
2026-05-04 16:00 49.57486 9.45499 25508 ft 436 kts 153°
2026-05-04 16:00 49.54850 9.47856 26070 ft 441 kts 153°
2026-05-04 16:00 49.52181 9.50251 26686 ft 445 kts 153°
2026-05-04 16:00 49.49502 9.52673 27327 ft 448 kts 153°
2026-05-04 16:01 49.46841 9.55094 27951 ft 452 kts 153°
2026-05-04 16:01 49.44128 9.57571 28543 ft 456 kts 153°
2026-05-04 16:01 49.41360 9.60100 29167 ft 459 kts 153°
2026-05-04 16:01 49.38636 9.62582 29706 ft 463 kts 153°
2026-05-04 16:02 49.35878 9.65164 30212 ft 468 kts 150°
2026-05-04 16:02 49.33235 9.68139 30627 ft 474 kts 145°
2026-05-04 16:02 49.28422 9.75183 31589 ft 480 kts 138°
2026-05-04 16:03 49.26082 9.78830 32186 ft 479 kts 138°
2026-05-04 16:03 49.23744 9.82448 32731 ft 478 kts 138°
2026-05-04 16:03 49.21398 9.86050 33252 ft 477 kts 138°
2026-05-04 16:03 49.19051 9.89631 33806 ft 476 kts 138°
2026-05-04 16:04 49.16711 9.93188 34294 ft 474 kts 139°
2026-05-04 16:04 49.12030 10.00283 35127 ft 474 kts 139°
2026-05-04 16:04 49.09688 10.03828 35538 ft 473 kts 139°
2026-05-04 16:05 49.07353 10.07358 35963 ft 472 kts 139°
2026-05-04 16:05 49.05009 10.10861 36432 ft 471 kts 140°
2026-05-04 16:05 49.00182 10.17622 36918 ft 476 kts 141°
2026-05-04 16:06 48.97734 10.21027 36982 ft 476 kts 141°
2026-05-04 16:07 48.88132 10.34552 36984 ft 469 kts 140°
2026-05-04 16:08 48.78799 10.48466 36985 ft 470 kts 136°
2026-05-04 16:09 48.67559 10.66401 36980 ft 471 kts 137°
2026-05-04 16:10 48.59311 10.81771 36972 ft 480 kts 115°
2026-05-04 16:11 48.57558 10.96724 36957 ft 487 kts 97°
2026-05-04 16:11 48.57276 11.01832 36946 ft 488 kts 97°
2026-05-04 16:12 48.55283 11.32496 36929 ft 489 kts 97°
2026-05-04 16:13 48.53839 11.52918 36940 ft 489 kts 98°
2026-05-04 16:14 48.52365 11.73311 36940 ft 488 kts 98°
2026-05-04 16:16 48.50477 11.98748 36936 ft 488 kts 98°
2026-05-04 16:17 48.47234 12.23746 36920 ft 486 kts 108°
2026-05-04 16:18 48.43576 12.43376 36917 ft 487 kts 107°
2026-05-04 16:19 48.39041 12.67968 36905 ft 488 kts 107°
2026-05-04 16:20 48.34759 12.90866 36900 ft 487 kts 107°
2026-05-04 16:22 48.30133 13.15306 36896 ft 485 kts 108°
2026-05-04 16:23 48.23514 13.43922 36893 ft 484 kts 111°
2026-05-04 16:24 48.17207 13.61529 36904 ft 480 kts 126°
2026-05-04 16:25 48.13547 13.69905 36899 ft 481 kts 125°
2026-05-04 16:26 48.00810 13.99319 36914 ft 482 kts 125°
2026-05-04 16:28 47.91682 14.20253 36917 ft 483 kts 125°
2026-05-04 16:29 47.78797 14.49530 36935 ft 482 kts 125°
2026-05-04 16:31 47.69544 14.70359 36944 ft 484 kts 125°
2026-05-04 16:32 47.58426 14.95183 36974 ft 481 kts 125°
2026-05-04 16:33 47.50992 15.11655 36982 ft 482 kts 125°
2026-05-04 16:34 47.45383 15.24017 36974 ft 484 kts 125°
2026-05-04 16:35 47.34093 15.48735 36981 ft 486 kts 125°
2026-05-04 16:36 47.28407 15.61102 36984 ft 486 kts 125°
2026-05-04 16:37 47.22707 15.73443 36973 ft 486 kts 125°
2026-05-04 16:38 47.15096 15.89833 36972 ft 485 kts 125°
2026-05-04 16:39 47.05565 16.10231 36977 ft 485 kts 125°
2026-05-04 16:40 46.98121 16.26726 36995 ft 486 kts 120°
2026-05-04 16:41 46.90016 16.48437 36986 ft 486 kts 119°
2026-05-04 16:43 46.81812 16.70036 36990 ft 486 kts 119°
2026-05-04 16:43 46.76872 16.82945 36997 ft 485 kts 119°
2026-05-04 16:45 46.67000 17.08571 36993 ft 484 kts 119°
2026-05-04 16:46 46.58716 17.29889 36997 ft 484 kts 119°
2026-05-04 16:47 46.52070 17.46870 37002 ft 483 kts 119°
2026-05-04 16:48 46.45408 17.63789 37015 ft 483 kts 119°
2026-05-04 16:49 46.38730 17.80643 37018 ft 482 kts 119°
2026-05-04 16:50 46.32029 17.97452 37023 ft 482 kts 119°
2026-05-04 16:51 46.26988 18.10031 37032 ft 482 kts 119°
2026-05-04 16:52 46.20247 18.26760 37051 ft 482 kts 119°
2026-05-04 16:53 46.15174 18.39284 37049 ft 482 kts 119°
2026-05-04 16:54 46.08390 18.55946 37041 ft 482 kts 119°
2026-05-04 16:55 45.98184 18.80828 37041 ft 482 kts 119°
2026-05-04 16:56 45.88641 19.00602 37054 ft 484 kts 130°
2026-05-04 16:57 45.81932 19.11442 37048 ft 484 kts 130°
2026-05-04 16:58 45.73033 19.25949 37054 ft 485 kts 130°
2026-05-04 17:00 45.59674 19.47657 37055 ft 485 kts 130°
2026-05-04 17:01 45.48510 19.65659 37067 ft 484 kts 130°
2026-05-04 17:02 45.39559 19.80009 37068 ft 485 kts 130°
2026-05-04 17:03 45.32827 19.90753 37068 ft 485 kts 130°
2026-05-04 17:03 45.26078 20.01482 37068 ft 486 kts 130°
2026-05-04 17:04 45.17057 20.15759 37080 ft 487 kts 130°
2026-05-04 17:05 45.07995 20.30027 37077 ft 487 kts 130°
2026-05-04 17:06 45.01211 20.40661 37078 ft 488 kts 130°
2026-05-04 17:07 44.95886 20.48980 37078 ft 488 kts 130°
2026-05-04 17:07 44.89813 20.58436 37081 ft 489 kts 130°
2026-05-04 17:08 44.82956 20.69076 37085 ft 489 kts 130°
2026-05-04 17:09 44.78376 20.76159 37080 ft 489 kts 130°
2026-05-04 17:09 44.74538 20.82082 37078 ft 489 kts 130°
2026-05-04 17:10 44.63107 20.99645 37080 ft 487 kts 130°
2026-05-04 17:11 44.58500 21.06694 37071 ft 486 kts 130°
2026-05-04 17:12 44.51679 21.17096 37085 ft 485 kts 131°
2026-05-04 17:13 44.40276 21.34402 37089 ft 483 kts 131°
2026-05-04 17:14 44.31124 21.48224 37092 ft 483 kts 131°
2026-05-04 17:15 44.24325 21.58543 37095 ft 484 kts 130°
2026-05-04 17:16 44.15188 21.72373 37099 ft 486 kts 131°
2026-05-04 17:17 44.05997 21.86203 37081 ft 486 kts 131°
2026-05-04 17:18 43.96815 21.99953 37084 ft 485 kts 131°
2026-05-04 17:19 43.87635 22.13635 37080 ft 484 kts 131°
2026-05-04 17:20 43.78450 22.27259 37080 ft 484 kts 131°
2026-05-04 17:20 43.71547 22.37462 37066 ft 484 kts 130°
2026-05-04 17:21 43.64314 22.52963 37077 ft 481 kts 115°
2026-05-04 17:22 43.61305 22.61208 37085 ft 481 kts 114°
2026-05-04 17:23 43.55291 22.77684 37100 ft 481 kts 115°
2026-05-04 17:24 43.50737 22.89985 36913 ft 476 kts 115°
2026-05-04 17:24 43.46295 23.01920 35822 ft 454 kts 116°
2026-05-04 17:25 43.44866 23.05748 35558 ft 446 kts 116°
2026-05-04 17:25 43.42054 23.13279 35171 ft 441 kts 116°
2026-05-04 17:26 43.39223 23.20837 35100 ft 448 kts 117°
2026-05-04 17:27 43.32051 23.39891 35086 ft 449 kts 117°
2026-05-04 17:28 43.26295 23.55089 35089 ft 449 kts 117°
2026-05-04 17:29 43.17623 23.77831 35093 ft 450 kts 117°
2026-05-04 17:31 43.10345 23.96778 35107 ft 449 kts 117°
2026-05-04 17:32 43.03044 24.15660 35101 ft 449 kts 117°
2026-05-04 17:33 42.97205 24.30668 35108 ft 448 kts 117°
2026-05-04 17:34 42.91337 24.45677 35114 ft 449 kts 117°
2026-05-04 17:35 42.83950 24.64456 35101 ft 450 kts 117°
2026-05-04 17:36 42.80939 24.72078 35349 ft 463 kts 117°
2026-05-04 17:36 42.79409 24.75941 35817 ft 464 kts 117°
2026-05-04 17:36 42.77875 24.79809 36259 ft 464 kts 117°
2026-05-04 17:36 42.76339 24.83677 36722 ft 465 kts 117°
2026-05-04 17:37 42.74800 24.87547 37118 ft 467 kts 116°
2026-05-04 17:37 42.71679 24.95388 37078 ft 482 kts 117°
2026-05-04 17:38 42.68454 25.03462 37083 ft 489 kts 117°
2026-05-04 17:38 42.65186 25.11621 37083 ft 493 kts 117°
2026-05-04 17:39 42.60248 25.23898 37061 ft 495 kts 117°
2026-05-04 17:39 42.56947 25.32081 37054 ft 494 kts 117°
2026-05-04 17:40 42.53647 25.40237 37057 ft 491 kts 117°
2026-05-04 17:40 42.50363 25.48332 37039 ft 489 kts 117°
2026-05-04 17:41 42.47093 25.56367 37041 ft 486 kts 117°
2026-05-04 17:41 42.43832 25.64365 37039 ft 484 kts 117°
2026-05-04 17:42 42.40573 25.72332 37032 ft 484 kts 117°
2026-05-04 17:42 42.37306 25.80295 37037 ft 484 kts 117°
2026-05-04 17:43 42.34032 25.88256 37034 ft 485 kts 117°
2026-05-04 17:43 42.30744 25.96228 37037 ft 486 kts 117°
2026-05-04 17:44 42.27489 26.04087 36996 ft 476 kts 117°
2026-05-04 17:44 42.24319 26.11725 36722 ft 459 kts 117°
2026-05-04 17:45 42.22769 26.15457 36392 ft 455 kts 117°
2026-05-04 17:45 42.21223 26.19175 36004 ft 453 kts 117°
2026-05-04 17:45 42.19665 26.22918 35674 ft 449 kts 117°
2026-05-04 17:45 42.18162 26.26524 35394 ft 445 kts 117°
2026-05-04 17:46 42.16652 26.30140 35107 ft 441 kts 117°
2026-05-04 17:46 42.15156 26.33719 34810 ft 437 kts 117°
2026-05-04 17:46 42.13669 26.37272 34500 ft 434 kts 117°
2026-05-04 17:46 42.12192 26.40799 34207 ft 430 kts 117°
2026-05-04 17:47 42.10727 26.44291 33886 ft 427 kts 117°
2026-05-04 17:47 42.09269 26.47763 33550 ft 424 kts 116°
2026-05-04 17:47 42.07826 26.51195 33280 ft 419 kts 116°
2026-05-04 17:47 42.06394 26.54598 32944 ft 416 kts 116°
2026-05-04 17:48 42.04971 26.57979 32546 ft 415 kts 116°
2026-05-04 17:48 42.03548 26.61354 32114 ft 415 kts 116°
2026-05-04 17:48 42.02125 26.64725 31732 ft 413 kts 116°
2026-05-04 17:48 42.00708 26.68078 31385 ft 412 kts 116°
2026-05-04 17:49 41.99295 26.71419 31039 ft 410 kts 116°
2026-05-04 17:49 41.97887 26.74740 30723 ft 408 kts 116°
2026-05-04 17:49 41.96476 26.78036 30431 ft 406 kts 117°
2026-05-04 17:49 41.95027 26.81270 30063 ft 402 kts 117°
2026-05-04 17:50 41.93572 26.84460 29597 ft 399 kts 117°
2026-05-04 17:50 41.92135 26.87620 29167 ft 395 kts 117°
2026-05-04 17:50 41.90717 26.90752 28749 ft 391 kts 117°
2026-05-04 17:50 41.89315 26.93852 28335 ft 387 kts 117°
2026-05-04 17:51 41.87918 26.96929 27916 ft 384 kts 117°
2026-05-04 17:51 41.86531 26.99977 27513 ft 381 kts 117°
2026-05-04 17:51 41.85153 27.03003 27123 ft 379 kts 116°
2026-05-04 17:51 41.83785 27.06009 26715 ft 376 kts 116°
2026-05-04 17:52 41.82426 27.08988 26310 ft 374 kts 116°
2026-05-04 17:52 41.81073 27.11952 25927 ft 372 kts 116°
2026-05-04 17:52 41.79666 27.14859 25532 ft 371 kts 119°
2026-05-04 17:52 41.78198 27.17694 25155 ft 369 kts 120°
2026-05-04 17:53 41.76725 27.20504 24773 ft 368 kts 120°
2026-05-04 17:53 41.75267 27.23307 24399 ft 366 kts 119°
2026-05-04 17:53 41.73824 27.26105 24043 ft 364 kts 118°
2026-05-04 17:53 41.72389 27.28898 23646 ft 364 kts 118°
2026-05-04 17:54 41.70953 27.31680 23196 ft 361 kts 121°
2026-05-04 17:54 41.69204 27.34130 22778 ft 369 kts 138°
2026-05-04 17:54 41.66963 27.35838 22420 ft 374 kts 154°
2026-05-04 17:54 41.64461 27.36793 22058 ft 374 kts 162°
2026-05-04 17:55 41.61929 27.37597 21703 ft 375 kts 162°
2026-05-04 17:55 41.60244 27.38149 21474 ft 378 kts 162°
2026-05-04 17:55 41.57673 27.39023 21108 ft 384 kts 161°
2026-05-04 17:55 41.55085 27.39920 20720 ft 384 kts 161°
2026-05-04 17:56 41.52504 27.40818 20319 ft 382 kts 161°
2026-05-04 17:56 41.49938 27.41710 19948 ft 379 kts 161°
2026-05-04 17:56 41.47392 27.42593 19569 ft 376 kts 161°
2026-05-04 17:56 41.44867 27.43469 19205 ft 373 kts 160°
2026-05-04 17:57 41.42430 27.44551 18825 ft 366 kts 151°
2026-05-04 17:57 41.40180 27.46057 18472 ft 358 kts 143°
2026-05-04 17:57 41.38124 27.47875 18089 ft 352 kts 137°
2026-05-04 17:57 41.36170 27.49826 17686 ft 351 kts 136°
2026-05-04 17:58 41.34230 27.51780 17300 ft 349 kts 136°
2026-05-04 17:58 41.32301 27.53722 16938 ft 346 kts 136°
2026-05-04 17:58 41.30384 27.55646 16573 ft 344 kts 137°
2026-05-04 17:58 41.28475 27.57556 16222 ft 342 kts 137°
2026-05-04 17:59 41.26581 27.59445 15868 ft 340 kts 137°
2026-05-04 17:59 41.24694 27.61323 15518 ft 338 kts 137°
2026-05-04 17:59 41.20953 27.65040 14841 ft 333 kts 137°
2026-05-04 18:00 41.19102 27.66875 14499 ft 331 kts 137°
2026-05-04 18:00 41.17261 27.68700 14170 ft 329 kts 137°
2026-05-04 18:00 41.15434 27.70509 13836 ft 327 kts 137°
2026-05-04 18:00 41.13620 27.72305 13455 ft 325 kts 137°
2026-05-04 18:01 41.11810 27.74093 13112 ft 322 kts 137°
2026-05-04 18:01 41.10024 27.75858 12783 ft 319 kts 137°
2026-05-04 18:01 41.08255 27.77605 12444 ft 316 kts 137°
2026-05-04 18:02 41.04728 27.81089 11808 ft 323 kts 138°
2026-05-04 18:02 41.02889 27.82904 11453 ft 327 kts 138°
2026-05-04 18:02 41.01064 27.84702 11093 ft 326 kts 138°
2026-05-04 18:02 40.99257 27.86477 10754 ft 321 kts 138°
2026-05-04 18:03 40.97504 27.88197 10437 ft 316 kts 138°
2026-05-04 18:03 40.95758 27.89910 10229 ft 307 kts 138°
2026-05-04 18:03 40.94086 27.91567 10069 ft 291 kts 134°
2026-05-04 18:03 40.92914 27.93551 9912 ft 263 kts 106°
2026-05-04 18:04 40.92436 27.95837 9767 ft 261 kts 90°
2026-05-04 18:04 40.92211 27.98248 9643 ft 265 kts 89°
2026-05-04 18:04 40.91811 28.03115 9033 ft 263 kts 89°
2026-05-04 18:05 40.91616 28.05491 8726 ft 258 kts 89°
2026-05-04 18:05 40.91423 28.07803 8341 ft 252 kts 89°
2026-05-04 18:05 40.91233 28.10089 8014 ft 248 kts 89°
2026-05-04 18:05 40.91043 28.12346 7652 ft 247 kts 89°
2026-05-04 18:06 40.90664 28.16848 6895 ft 246 kts 90°
2026-05-04 18:06 40.90472 28.19089 6535 ft 245 kts 90°
2026-05-04 18:06 40.90281 28.21317 6161 ft 244 kts 90°
2026-05-04 18:07 40.90089 28.23530 5809 ft 241 kts 90°
2026-05-04 18:07 40.89898 28.25730 5423 ft 240 kts 90°
2026-05-04 18:07 40.89709 28.27898 5248 ft 234 kts 90°
2026-05-04 18:07 40.89523 28.30019 5250 ft 234 kts 89°
2026-05-04 18:08 40.89337 28.32180 5260 ft 240 kts 90°
2026-05-04 18:08 40.89147 28.34353 5246 ft 234 kts 90°
2026-05-04 18:08 40.88961 28.36433 5216 ft 221 kts 90°
2026-05-04 18:08 40.88783 28.38409 5244 ft 214 kts 88°
2026-05-04 18:09 40.88442 28.42301 5314 ft 211 kts 88°
2026-05-04 18:09 40.88100 28.46269 5315 ft 238 kts 88°
2026-05-04 18:10 40.87907 28.48559 5335 ft 258 kts 90°
2026-05-04 18:10 40.87697 28.50893 5272 ft 259 kts 90°
2026-05-04 18:10 40.87478 28.53285 5188 ft 262 kts 90°
2026-05-04 18:10 40.87261 28.55690 4988 ft 265 kts 90°
2026-05-04 18:11 40.87042 28.58100 4790 ft 263 kts 90°
2026-05-04 18:11 40.86830 28.60438 4590 ft 257 kts 90°
2026-05-04 18:11 40.86619 28.62755 4401 ft 253 kts 90°
2026-05-04 18:11 40.86411 28.65058 4227 ft 252 kts 90°
2026-05-04 18:12 40.86442 28.67285 4089 ft 238 kts 66°
2026-05-04 18:12 40.87291 28.69114 4042 ft 235 kts 39°
2026-05-04 18:12 40.88601 28.70352 4011 ft 230 kts 25°
2026-05-04 18:12 40.90014 28.71320 3996 ft 227 kts 24°
2026-05-04 18:13 40.91413 28.72252 3993 ft 224 kts 24°
2026-05-04 18:13 40.92796 28.73177 3988 ft 221 kts 24°
2026-05-04 18:13 40.95524 28.75014 3983 ft 210 kts 24°
2026-05-04 18:14 40.96785 28.75865 3979 ft 196 kts 21°
2026-05-04 18:14 40.98092 28.76198 4005 ft 193 kts 358°
2026-05-04 18:14 40.99442 28.76137 4010 ft 195 kts 359°
2026-05-04 18:15 41.02154 28.76113 3993 ft 195 kts 359°
2026-05-04 18:15 41.04842 28.76071 3991 ft 192 kts 359°
2026-05-04 18:15 41.06169 28.76047 3990 ft 187 kts 359°
2026-05-04 18:16 41.07440 28.76024 3973 ft 178 kts 359°
2026-05-04 18:16 41.08699 28.76002 3712 ft 181 kts 359°
2026-05-04 18:16 41.09937 28.75979 3483 ft 177 kts 359°
2026-05-04 18:17 41.12402 28.75932 3103 ft 177 kts 359°
2026-05-04 18:17 41.13639 28.75909 2928 ft 182 kts 360°
2026-05-04 18:17 41.16049 28.75860 2266 ft 159 kts
2026-05-04 18:18 41.17098 28.75840 2080 ft 141 kts
2026-05-04 18:18 41.18041 28.75822 1898 ft 130 kts
2026-05-04 18:18 41.18902 28.75806 1751 ft 121 kts
2026-05-04 18:18 41.19757 28.75792 1586 ft 125 kts
2026-05-04 18:19 41.21496 28.75758 1222 ft 127 kts 360°
2026-05-04 18:19 41.22392 28.75738 958 ft 128 kts 358°
2026-05-04 18:19 41.23278 28.75705 823 ft 128 kts 356°
2026-05-04 18:20 41.24181 28.75668 638 ft 132 kts 358°
2026-05-04 18:20 41.25084 28.75702 418 ft 131 kts
2026-05-04 18:20 41.25974 28.75709 248 ft 127 kts 346°
2026-05-04 18:20 41.26844 28.75649 192 ft 117 kts 356°
2026-05-04 18:21 41.27547 28.75638 192 ft 78 kts 358°
2026-05-04 18:21 41.27910 28.75629 183 ft 35 kts 350°
2026-05-04 18:21 41.28071 28.75546 183 ft 12 kts 331°
2026-05-04 18:21 41.28133 28.75496 183 ft 8 kts 321°
2026-05-04 18:22 41.28161 28.75435 184 ft 8 kts 274°
2026-05-04 18:22 41.28138 28.75366 184 ft 9 kts 214°
2026-05-04 18:22 41.28077 28.75352 196 ft 9 kts 181°
2026-05-04 18:22 41.28007 28.75349 189 ft 11 kts 182°
2026-05-04 18:23 41.27930 28.75352 190 ft 12 kts 177°
2026-05-04 18:23 41.27846 28.75356 184 ft 13 kts 178°
2026-05-04 18:23 41.27757 28.75359 198 ft 13 kts 179°
2026-05-04 18:23 41.27627 28.75363 197 ft 28 kts 179°
2026-05-04 18:24 41.27438 28.75368 186 ft 24 kts 179°
2026-05-04 18:24 41.27290 28.75368 195 ft 20 kts 180°
2026-05-04 18:24 41.27156 28.75369 189 ft 17 kts 179°
2026-05-04 18:24 41.27036 28.75372 196 ft 17 kts 179°
2026-05-04 18:25 41.26987 28.75357 193 ft 8 kts 214°
2026-05-04 18:25 41.26965 28.75252 184 ft 15 kts 265°
2026-05-04 18:25 41.26963 28.75114 183 ft 15 kts 273°
2026-05-04 18:25 41.26962 28.74976 183 ft 15 kts 267°
2026-05-04 18:26 41.26960 28.74847 183 ft 11 kts 269°
2026-05-04 18:26 41.26959 28.74743 183 ft 12 kts 269°
2026-05-04 18:26 41.26950 28.74637 183 ft 12 kts 243°
2026-05-04 18:26 41.26872 28.74610 183 ft 13 kts 179°
2026-05-04 18:27 41.26782 28.74612 183 ft 13 kts 179°
2026-05-04 18:27 41.26719 28.74620 183 ft 8 kts 159°
2026-05-04 18:27 41.26700 28.74681 183 ft 6 kts 90°
2026-05-04 18:27 41.26701 28.74710 183 ft 3 kts 89°
2026-05-04 18:28 41.26701 28.74718 183 ft 0 kts 89°